TimeCST,TemperatureF,Dew PointF,Humidity,Sea Level PressureIn,VisibilityMPH,Wind Direction,Wind SpeedMPH,Gust SpeedMPH,PrecipitationIn,Events,Conditions,WindDirDegrees,DateUTC
12:55 AM,25.0,18.0,75,30.20,10.0,WNW,6.9,-,N/A,,Clear,290,2012-11-12 06:55:00
1:55 AM,24.1,17.1,75,30.23,10.0,West,6.9,-,N/A,,Clear,280,2012-11-12 07:55:00
2:55 AM,23.0,17.1,78,30.25,10.0,West,5.8,-,N/A,,Clear,260,2012-11-12 08:55:00
3:55 AM,23.0,17.1,78,30.25,10.0,West,5.8,-,N/A,,Clear,260,2012-11-12 09:55:00
4:55 AM,23.0,17.1,78,30.27,10.0,WSW,5.8,-,N/A,,Clear,250,2012-11-12 10:55:00
5:55 AM,23.0,17.1,78,30.28,10.0,WSW,5.8,-,N/A,,Clear,250,2012-11-12 11:55:00
6:55 AM,21.9,17.1,82,30.30,10.0,WSW,6.9,-,N/A,,Clear,240,2012-11-12 12:55:00
7:55 AM,25.0,18.0,75,30.32,10.0,WSW,8.1,-,N/A,,Clear,250,2012-11-12 13:55:00
8:55 AM,28.0,18.0,66,30.32,10.0,West,11.5,-,N/A,,Clear,270,2012-11-12 14:55:00
9:55 AM,32.0,19.0,59,30.33,10.0,West,12.7,21.9,N/A,,Clear,260,2012-11-12 15:55:00
10:55 AM,35.1,19.9,54,30.32,10.0,West,13.8,23.0,N/A,,Clear,260,2012-11-12 16:55:00
11:55 AM,37.0,19.9,50,30.31,10.0,West,16.1,25.3,N/A,,Clear,270,2012-11-12 17:55:00
12:55 PM,37.9,19.9,48,30.30,10.0,West,17.3,26.5,N/A,,Clear,260,2012-11-12 18:55:00
1:55 PM,39.0,19.9,46,30.30,10.0,West,19.6,26.5,N/A,,Clear,270,2012-11-12 19:55:00
2:55 PM,39.9,21.0,47,30.31,10.0,WNW,15.0,25.3,N/A,,Clear,290,2012-11-12 20:55:00
3:55 PM,39.0,21.0,49,30.35,10.0,WNW,15.0,23.0,N/A,,Clear,290,2012-11-12 21:55:00
4:55 PM,36.0,21.0,55,30.35,10.0,West,8.1,17.3,N/A,,Clear,270,2012-11-12 22:55:00
5:55 PM,35.6,21.2,56,30.34,10.0,WSW,5.8,-,N/A,,Clear,250,2012-11-12 23:55:00
6:55 PM,33.1,21.0,61,30.40,10.0,WSW,4.6,-,N/A,,Clear,250,2012-11-13 00:55:00
7:55 PM,32.0,21.0,64,30.41,10.0,WSW,3.5,-,N/A,,Clear,250,2012-11-13 01:55:00
8:55 PM,30.0,21.0,69,30.43,10.0,West,5.8,-,N/A,,Clear,270,2012-11-13 02:55:00
9:55 PM,30.0,19.9,66,30.45,10.0,Calm,Calm,-,N/A,,Clear,0,2012-11-13 03:55:00
10:55 PM,28.0,19.9,72,30.45,10.0,West,3.5,-,N/A,,Clear,270,2012-11-13 04:55:00
11:55 PM,24.1,19.0,81,30.46,10.0,SW,3.5,-,N/A,,Clear,220,2012-11-13 05:55:00